This is the latest recevied weather packets stored in our database for station/object W2GUX. If no packets are shown the sender has not sent any weather packets the latest 10 day(s).
| Time | Temp. | Humidity | Pressure | Rain* | Wind** | Luminosity | Snow |
|---|---|---|---|---|---|---|---|
| 1778202304 | 12.22° C | 49% | 1005.9 hPa | 0 mm | - | - | - |
| 1778202004 | 12.78° C | 48% | 1005.9 hPa | 0 mm | - | - | - |
| 1778201703 | 12.78° C | 47% | 1005.9 hPa | 0 mm | - | - | - |
| 1778201404 | 13.33° C | 46% | 1005.8 hPa | 0 mm | - | - | - |
| 1778201104 | 13.33° C | 46% | 1005.7 hPa | 0 mm | - | - | - |
| 1778200804 | 13.33° C | 45% | 1005.7 hPa | 0 mm | - | - | - |
| 1778200503 | 13.89° C | 43% | 1005.6 hPa | 0 mm | - | - | - |
| 1778200203 | 13.89° C | 41% | 1005.6 hPa | 0 mm | - | - | - |
| 1778199903 | 14.44° C | 41% | 1005.5 hPa | 0 mm | - | - | - |
| 1778199604 | 14.44° C | 41% | 1005.3 hPa | 0 mm | - | - | - |
| 1778199304 | 15° C | 39% | 1005.2 hPa | 0 mm | - | - | - |
| 1778199004 | 15° C | 38% | 1005.2 hPa | 0 mm | - | - | - |
| 1778198703 | 15° C | 39% | 1005.1 hPa | 0 mm | - | - | - |
| 1778198403 | 15.56° C | 38% | 1005 hPa | 0 mm | - | - | - |
| 1778198104 | 15.56° C | 35% | 1005 hPa | 0 mm | - | - | - |
| 1778197804 | 15.56° C | 33% | 1005 hPa | 0 mm | - | - | - |
| 1778197503 | 15.56° C | 33% | 1005.1 hPa | 0 mm | - | - | - |
| 1778197203 | 15.56° C | 31% | 1005 hPa | 0 mm | - | - | - |
| 1778196903 | 16.11° C | 30% | 1004.9 hPa | 0 mm | - | - | - |
| 1778196604 | 16.11° C | 30% | 1004.9 hPa | 0 mm | - | - | - |
| 1778196304 | 16.11° C | 29% | 1004.9 hPa | 0 mm | - | - | - |
| 1778196003 | 16.67° C | 29% | 1004.6 hPa | 0 mm | - | - | - |
| 1778195703 | 16.67° C | 28% | 1004.6 hPa | 0 mm | - | - | - |
| 1778195403 | 16.67° C | 27% | 1004.8 hPa | 0 mm | - | - | - |
| 1778195103 | 16.67° C | 27% | 1004.7 hPa | 0 mm | - | - | - |
* Rain latest hour (hover to see other rain measurements)
** Current wind speed in m/s (hover to see current wind gust speed)